Weather in Lahore

Pakistan     31°31′07″N   74°18′11″E
temp.,
°C
wind,
m/s
gust,
m/s
humid.,
%
clouds,
%
prec.,
mm/h
press.,
hPa
HPBL,
m
8 december, wed
wed823:00+17nnw113637 0.0 101915
02:00+15nw224018 0.0 101744
05:00+14nw22450 0.0 101747
08:00+15wnw22440 0.0 101872
11:00+21wnw23290 0.0 1019613
14:00+24nw22210 0.0 10171381
17:00+20n11250 0.0 101711
20:00+18ene11280 0.0 101811
9 december, thu
thu923:00+17e00310 0.0 101911
02:00+15nne11340 0.0 101810
05:00+14ne11360 0.0 101812
08:00+15nnw11350 0.0 102027
11:00+21nnw11240 0.0 1021518
14:00+23nnw22190 0.0 10191285
17:00+20n11220 0.0 101912
20:00+18n22260 0.0 102119
10 december, fri
fri1023:00+16nnw11290 0.0 102115
02:00+15nnw22330 0.0 102133
05:00+13n22370 0.0 102042
08:00+14nnw22370 0.0 102163
11:00+21nw22240 0.0 1021506
14:00+23wnw22170 0.0 10181175
17:00+20nw11210 0.0 101812
20:00+17nnw11240 0.0 101912
11 december, sat
sat1123:00+16nw11250 0.0 101911
02:00+14nw11270 0.0 101811
05:00+13nnw11290 0.0 101723
08:00+14nnw11295 0.0 101942
11:00+20nw12180 0.0 1020459
14:00+23nw221227 0.0 10171045
17:00+20nnw1114100 0.0 101711
20:00+17n111535 0.0 101912
12 december, sun
sun1223:00+15n111888 0.0 101912
02:00+14n222336 0.0 101918
05:00+13n1127100 0.0 101824
08:00+14n112698 0.0 102039
11:00+20nnw121782 0.0 1020461
14:00+22nw2213100 0.0 1017935
17:00+19nnw111694 0.0 101711
20:00+16n111887 0.0 101811